Flag for Canada Weather past 2 weeks in Shawinigan, Quebec, Canada

Now
43 °F

Quite cool.


Feels Like: 43 °F
Forecast: 40 / 53 °F
Wind: 2 mph from South

Location: Shawinigan CS

Current Time: Oct 25, 2014 at 10:52:23 AM

Latest Report: Oct 25, 2014 at 10:00 AM


Visibility: N/A

Pressure: 29.67 "Hg

Humidity: 85%

Dew point: 39 °F

Location of ShawiniganLocation

Historic Weather in Shawinigan — Graph

°F

Shawinigan temperature yesterday

Maximum temperature yesterday: 60 °F (at 4:00 PM)
Minimum temperature yesterday: 38 °F (at 10:00 PM)
Average temperature yesterday: 49 °F

Past Weeks' High & Low Weather Summary

 TemperatureHumidityPressure
High71 °F (Oct 14, 4:00 PM)100% (Oct 12, 7:00 AM)30.36 "Hg (Oct 12, 7:00 AM)
Low31 °F (Oct 13, 6:00 AM)30% (Oct 24, 4:00 PM)29.41 "Hg (Oct 17, 2:00 PM)
Average48 °F75%29.95 "Hg
* Reported Oct 10 9:00 AM — Oct 25 9:00 AM, Shawinigan, Weather by CustomWeather, © 2014

Note: Actual official high and low records may vary slightly from our data, if they occured in-between our weather recording intervals... More about our weather records

Advertising

Shawinigan weather history for previous 24 hours

 ConditionsComfort  
Time TempWeatherWind HumidityBarometerVisibility
9:00 AM
Oct 25
38 °FChilly.1 mph90%29.69 "HgN/A
8:00 AM35 °FChilly.2 mph92%29.70 "HgN/A
7:00 AM35 °FChilly.1 mph87%29.70 "HgN/A
6:00 AM36 °FChilly.2 mph91%29.71 "HgN/A
5:00 AM37 °FChilly.1 mph91%29.70 "HgN/A
4:00 AM39 °FChilly.1 mph93%29.72 "HgN/A
3:00 AM39 °FChilly.No wind94%29.73 "HgN/A
2:00 AM39 °FChilly.2 mph94%29.74 "HgN/A
1:00 AM40 °FChilly.2 mph92%29.74 "HgN/A
12:00 AM40 °FChilly.1 mph90%29.75 "HgN/A
11:00 PM
Oct 24
40 °FChilly.1 mph92%29.77 "HgN/A
10:00 PM38 °FChilly.1 mph97%29.79 "HgN/A
9:00 PM42 °FQuite cool.1 mph88%29.80 "HgN/A
8:00 PM45 °FCool.1 mph81%29.81 "HgN/A
7:00 PM47 °FCool.1 mph76%29.81 "HgN/A
6:00 PM51 °FCool.5 mph73%29.80 "HgN/A
5:00 PM47 °FCool.3 mph88%30.04 "HgN/A
4:00 PM60 °FRefreshingly cool.6 mph30%N/AN/A
3:00 PM60 °FRefreshingly cool.3 mph35%N/AN/A
2:00 PM56 °FRefreshingly cool.5 mph43%N/AN/A
1:00 PM53 °FCool.7 mph44%N/AN/A
12:00 PM52 °FCool.5 mph50%N/AN/A
11:00 AM50 °FCool.5 mph53%N/AN/A
Weather by CustomWeather, © 2014

See weather overviewHow to use our weather pages